Location: Aufkirchen
(47.9603°N, 11.3653°E)
Time: 17:01:34
(UTC+01:00)

Transit 4A - Pass Details

Date: 27 November 2020
Orbit: 864 x 980 km, 66.8° (Epoch: 26 January)

Event Time Altitude Azimuth Distance (km) Brightness Sun altitude
Rises 06:48:29 0° 152° (SSE) 3,616 11.9 -8.3°
Reaches altitude 10° 06:52:31 10° 127° (SE) 2,697 11.9 -7.6°
Maximum altitude 06:55:18 13° 100° (E) 2,480 11.6 -7.2°
Drops below altitude 10° 06:58:05 10° 74° (ENE) 2,726 11.2 -6.8°
Sets 07:02:11 0° 49° (NE) 3,688 11.4 -6.2°
